Hourly Data Report for June 21, 2017

FISHER BRANCH (AUT)
MANITOBA

51°05'00.100" N
97°33'16.200" W
253.00 m
50309J6
71442
WSZ

Download Data

Hourly Data (June 2017)
Hourly Data Report for June 21, 2017
TIME
LST
Temp Definition
°C
Dew Point Definition
°C
Rel Hum Definition
%
Precip. Amount Definition
mm

Wind Dir Definition
10's deg

Wind Spd Definition
km/h
Visibility Definition
km
Stn Press Definition
kPa
Hmdx Definition


Wind Chill Definition


Weather Definition


00:00 10.0 7.5 85 0.0 13 3   98.08     LegendNANA
01:00 12.1 9.6 85 0.0 14 4   98.05     LegendNANA
02:00 12.8 10.0 83 0.0 14 8   97.98     LegendNANA
03:00 13.9 8.9 72 0.0 15 11   97.95     LegendNANA
04:00 13.2 9.5 78 0.0 14 11   97.92     LegendNANA
05:00 14.1 9.9 76 0.0 15 11   97.87     LegendNANA
06:00 13.8 10.4 80 0.0 16 10   97.86     LegendNANA
07:00 17.1 11.5 70 0.0 15 14   97.72     LegendNANA
08:00 18.7 11.3 62 0.0 16 15   97.69     LegendNANA
09:00 19.0 10.6 58 0.0 18 22   97.66     LegendNANA
10:00 17.1 11.7 71 0.0 18 21   97.64     LegendNANA
11:00 14.6 12.3 86 0.0 15 20   97.53     LegendNANA
12:00 14.8 12.7 87 0.0 15 26   97.45     LegendNANA
13:00 15.9 12.8 81 0.0 16 25   97.44     LegendNANA
14:00 16.3 12.3 77 0.0 16 24   97.39     LegendNANA
15:00 16.5 12.7 78 0.0 15 17   97.31     LegendNANA
16:00 16.6 12.9 79 0.0 15 21   97.26     LegendNANA
17:00 17.0 12.9 77 0.0 15 22   97.19     LegendNANA
18:00 17.1 12.8 76 0.0 17 19   97.16     LegendNANA
19:00 18.1 13.8 76 0.0 16 14   97.14     LegendNANA
20:00 16.7 13.5 82 0.0 17 13   97.13     LegendNANA
21:00 14.5 12.5 88 0.0 19 8   97.15     LegendNANA
22:00 14.0 11.7 86 0.0 20 9   97.14     LegendNANA
23:00 14.1 9.3 73 0.0 32 10   97.18     LegendNANA

Notes on Data Quality.

Legend

  • E = Estimated
  • M = Missing
  • NA = Not Available*
  • [empty] = Indicates an unobserved value
Date modified: